This demonstration page uses our WeatherBlox Daily Observations layout. Learn more.

38.88101, -77.10428

Hourly Observations for February 26, 2018

Temp ( °F °C ) Dew Point ( °F °C ) Humidity (%) Winds ( mph kmh ) Pressure ( in mb ) Visibility ( mi km ) Precip ( " mm )
12:52 am 00:52 Cloudy with Mist and Fog 50 10 50 10 100 100 Calm 30.06 1018 3 4.82802 0 0
12:57 am 00:57 Cloudy with Mist and Fog 51 10.6 51 10.6 100 100 Calm 30.06 1018 2.5 4.02335 0 0
1:18 am 01:18 Cloudy with Mist and Fog 50 10 50 10 100 100 S 5 7 30.06 1018 2.5 4.02335 0 0
1:25 am 01:25 Cloudy with Fog 50 10 50 10 100 100 S 5 7 30.06 1018 0.5 0.80467 0 0
1:29 am 01:29 Mostly Cloudy with Fog 50 10 50 10 100 100 S 5 7 30.06 1018 0.25 0.402335 0 0
1:52 am 01:52 Mostly Cloudy with Fog 50 10 50 10 100 100 SSW 5 7 30.07 1018 0.25 0.402335 0 0
2:09 am 02:09 Cloudy with Mist and Fog 50 10 50 10 100 100 Calm 30.09 1019 2 3.21868 0 0
2:41 am 02:41 Cloudy with Mist and Fog 50 10 50 10 100 100 Calm 30.09 1019 1.75 2.816345 0 0
2:45 am 02:45 Cloudy with Mist and Fog 50 10 50 10 100 100 S 5 7 30.09 1019 0.75 1.207005 0 0
2:52 am 02:52 Cloudy with Mist and Fog 49 9.4 49 9.4 100 100 S 6 9 30.08 1019 0.75 1.207005 0 0
2:54 am 02:54 Mostly Cloudy with Fog 49 9.4 49 9.4 100 100 S 6 9 30.09 1019 0.25 0.402335 0 0
2:59 am 02:59 Mostly Cloudy with Fog 50 10 50 10 100 100 SSE 3 6 30.09 1019 1 1.60934 0 0
3:11 am 03:11 Mostly Cloudy with Fog 50 10 50 10 100 100 Calm 30.09 1019 0.25 0.402335 0 0
3:28 am 03:28 Cloudy with Mist and Fog 50 10 50 10 100 100 S 3 6 30.09 1019 3 4.82802 0 0
3:52 am 03:52 Cloudy with Mist and Fog 50 10 50 10 100 100 SSW 3 6 30.08 1019 3 4.82802 0 0
4:52 am 04:52 Cloudy 49 9.4 49 9.4 100 100 Calm 30.12 1020 9 14.48406 0 0
5:52 am 05:52 Cloudy 49 9.4 47 8.3 93 93 NNW 5 7 30.13 1020 10 16.0934 0 0
6:52 am 06:52 Cloudy 50 10 43 6.1 77 77 NNW 8 13 30.13 1020 10 16.0934 0 0
7:52 am 07:52 Cloudy 51 10.6 40 4.4 66 66 NNW 8 13 30.16 1022 10 16.0934 0 0
8:52 am 08:52 Cloudy 51 10.6 36 2.2 56 56 NNW 10 17 30.21 1023 10 16.0934 0 0
9:52 am 09:52 Cloudy 51 10.6 35 1.7 54 54 NNW 9 15 30.21 1023 10 16.0934 0 0
10:52 am 10:52 Cloudy 51 10.6 36 2.2 56 56 NW 9 15 30.23 1024 10 16.0934 0 0
11:52 am 11:52 Cloudy 51 10.6 35 1.7 54 54 NNW 14 22 30.23 1024 10 16.0934 0 0
12:52 pm 12:52 Cloudy 52 11.1 35 1.7 53 53 NW 12 19 30.23 1024 10 16.0934 0 0
1:52 pm 13:52 Cloudy 53 11.7 33 0.6 47 47 WNW 10 17 30.23 1024 10 16.0934 0 0
2:52 pm 14:52 Cloudy 53 11.7 31 -0.6 43 43 NNW 13 20 30.22 1023 10 16.0934 0 0
3:52 pm 15:52 Cloudy 52 11.1 32 0 47 47 NNW 13 20 30.23 1024 10 16.0934 0 0
4:52 pm 16:52 Cloudy 52 11.1 31 -0.6 45 45 VRB 6 9 30.25 1024 10 16.0934 0 0
5:52 pm 17:52 Partly Cloudy 51 10.6 32 0 48 48 NNW 7 11 30.26 1025 10 16.0934 0 0
6:52 pm 18:52 Mostly Clear 49 9.4 32 0 52 52 N 5 7 30.27 1025 10 16.0934 0 0
7:52 pm 19:52 Mostly Clear 50 10 32 0 50 50 W 3 6 30.29 1026 10 16.0934 0 0
8:52 pm 20:52 Mostly Clear 45 7.2 34 1.1 66 66 SSW 3 6 30.3 1026 10 16.0934 0 0
9:52 pm 21:52 Clear 43 6.1 35 1.7 74 74 SW 3 6 30.31 1027 10 16.0934 0 0
10:52 pm 22:52 Mostly Clear 42 5.6 34 1.1 73 73 SW 5 7 30.32 1027 10 16.0934 0 0
11:52 pm 23:52 Mostly Clear 42 5.6 36 2.2 79 79 WSW 3 6 30.33 1027 10 16.0934 0 0

Powered by AerisWeather